Weather in Shilykovo

Russia / Ivanovo Oblast     56°55′21″N   40°44′21″E
temp.,
°C
wind,
m/s
gust,
m/s
humid.,
%
clouds,
%
prec.,
mm/h
press.,
hPa
HPBL,
m
25 february, thu
thu2500:00−16s41094100 0.5 1027446
03:00−15s51095100 1.5 1024468
06:00−14s51195100 1.9 1019429
09:00−12s51095100 4.6 1015427
12:00−8s3795100 2.1 1011282
15:00−5s2397100 2.6 101193
18:00−1w1499100 0.1 1011163
21:00+1wnw3999100 0.3 1012325
26 february, fri
fri2600:00+1w3898100 0.0 1011313
03:00−1wsw2397100 0.1 101086
06:00+1sw2599100 0.9 1007137
09:00+1sw3899100 1.4 1005238
12:00+2sw41299100 2.0 1001392
15:00+3wsw51499100 3.3 998497
18:00+2w61596100 2.7 996840
21:00+1w71396100 2.8 996976
27 february, sat
sat2700:000wnw71397100 0.4 995900
03:000wnw71396100 0.9 9961066
06:00−1nw61297100 1.0 996810
09:00−8nnw51090100 1.6 999550
12:00−8nnw5988100 0.1 1001644
15:00−8n5988100 0.1 1004587
18:00−8n4991100 0.1 1006537
21:00−10n31094100 0.1 1009417
28 february, sun
sun2800:00−13nnw269778 0.0 1011162
03:00−14nnw369654 0.0 1013180
06:00−14nnw279676 0.0 1014227
09:00−12n369380 0.1 1015320
12:00−8nnw478997 0.1 1017564
15:00−6nnw488899 0.1 1017707
18:00−6n31091100 0.1 1019735
21:00−10nnw239693 0.1 102140
1 march, mon
mon100:00−9nnw269782 0.1 1023145
03:00−11nnw239779 0.1 102458
06:00−12nw239657 0.0 102527
09:00−9wnw239528 0.0 1025122
12:00−4wsw349154 0.0 1025344
15:00−2wsw489177 0.0 1023465
18:00−2wsw41095100 0.1 1021574
21:00−1w41194100 0.2 1017644